Location: Northcutt
(34.7304°N, 84.4305°W)
Time: 16:36:53
(UTC+00:00)

SR - Pass Details

Date: 11 October 2022
Orbit: 577 x 874 km, 66.7° (Epoch: 05 December)

Event Time Altitude Azimuth Distance (km) Brightness Sun altitude
Rises 01:37:30 0° 251° (WSW) 3,440 ? -31.1°
Reaches altitude 10° 01:40:50 10° 270° (W) 2,521 ? -31.7°
Maximum altitude 01:44:41 18° 311° (NW) 2,028 ? -32.5°
Drops below altitude 10° 01:48:32 10° 352° (N) 2,512 ? -33.3°
Sets 01:51:53 0° 11° (NNE) 3,425 ? -33.9°
